Kapolei, HI

8:11 PM HST on February 07, 2016 (GMT -1000)
Kalaeloa (John Rodgers Field)

Weather History for PHJR - October, 2012

Change the Weather History Date:

Friday, October 5, 2012

  Actual Average (PHNL) Record (PHNL)
Temperature  
Mean Temperature 72 °F 81 °F  
Max Temperature 79 °F 88 °F 91 °F (1995)
Min Temperature 64 °F 74 °F 68 °F (1976)
Degree Days  
Heating Degree Days 0 0  
Month to date heating degree days 0  
Since 1 July heating degree days 0  
Cooling Degree Days 6 16  
Month to date cooling degree days 80  
Year to date cooling degree days 3559  
Growing Degree Days 22 (Base 50)    
Moisture  
Dew Point 67 °F    
Average Humidity 80    
Maximum Humidity 93    
Minimum Humidity 66    
Precipitation  
Precipitation 0.00 in 0.05 in 0.18 in (1976)
Month to date precipitation 0.21  
Year to date precipitation 9.81  
Sea Level Pressure  
Sea Level Pressure 29.99 in    
Wind  
Wind Speed 3 mph (South)    
Max Wind Speed 10 mph    
Max Gust Speed -    
Visibility 10 miles    
Events      
T = Trace of Precipitation, MM = Missing Value Source: NWS Daily Summary

Daily Weather History Graph

Daily Weather History Graph

Search for Another Location

Airport or City:

Trip Planner

Search our weather history database for the weather conditions in past years. The results will help you decide how hot, cold, wet, or windy it might be!

Date:

Astronomy

Oct. 05, 2012 Rise Set
Actual Time 6:24 AM HST 6:15 PM HST
Civil Twilight 6:02 AM HST 6:37 PM HST
Nautical Twilight 5:36 AM HST 7:03 PM HST
Astronomical Twilight 5:11 AM HST 7:29 PM HST
Moon 10:22 PM HST (10/5) 11:08 AM HST (10/5)
Length of Visible Light 12h 35m
Length of Day
11h 50m
Waning Gibbous, 72% of the Moon is Illuminated
Oct 5
Waning Gibbous
Oct 7
Last Quarter
Oct 15
New
Oct 21
First Quarter
Oct 29
Full

Hourly Weather History & Observations

Time (HST) Temp. Dew Point Humidity Pressure Visibility Wind Dir Wind Speed Gust Speed Precip Events Conditions
12:53 AM 68.0 °F 64.0 °F 87% 30.04 in 10.0 mi Calm Calm - N/A   Clear
1:53 AM 68.0 °F 64.9 °F 90% 30.02 in 10.0 mi Calm Calm - N/A   Clear
2:53 AM 66.9 °F 64.0 °F 90% 30.01 in 10.0 mi Calm Calm - N/A   Clear
3:53 AM 66.9 °F 64.0 °F 90% 29.99 in 10.0 mi Calm Calm - N/A   Clear
4:53 AM 64.9 °F 63.0 °F 93% 29.99 in 10.0 mi Calm Calm - N/A   Clear
5:53 AM 64.9 °F 63.0 °F 93% 30.00 in 10.0 mi NNE 3.5 mph - N/A   Clear
6:53 AM 64.9 °F 63.0 °F 93% 30.01 in 10.0 mi Calm Calm - N/A   Clear
7:53 AM 73.9 °F 66.0 °F 76% 30.02 in 10.0 mi Calm Calm - N/A   Clear
8:53 AM 77.0 °F 64.9 °F 66% 30.03 in 10.0 mi ESE 3.5 mph - N/A   Clear
9:53 AM 77.0 °F 66.9 °F 71% 30.02 in 10.0 mi SE 8.1 mph - N/A   Clear
10:53 AM 78.1 °F 70.0 °F 76% 30.01 in 10.0 mi SSE 10.4 mph - N/A   Clear
11:53 AM 79.0 °F 69.1 °F 72% 29.99 in 10.0 mi SSE 10.4 mph - N/A   Clear
12:53 PM 79.0 °F 70.0 °F 74% 29.97 in 10.0 mi SSE 9.2 mph - N/A   Partly Cloudy
1:53 PM 79.0 °F 69.1 °F 72% 29.96 in 10.0 mi South 9.2 mph - N/A   Clear
2:53 PM 79.0 °F 69.1 °F 72% 29.94 in 10.0 mi SSW 8.1 mph - N/A   Partly Cloudy
3:53 PM 78.1 °F 68.0 °F 71% 29.93 in 10.0 mi SSW 8.1 mph - N/A   Partly Cloudy
4:53 PM 77.0 °F 69.1 °F 76% 29.93 in 10.0 mi SSW 6.9 mph - N/A   Overcast
5:53 PM 75.9 °F 70.0 °F 82% 29.94 in 10.0 mi SSW 4.6 mph - N/A   Overcast
6:53 PM 75.9 °F 69.1 °F 79% 29.96 in 10.0 mi SSW 4.6 mph - N/A   Overcast
7:53 PM 75.0 °F 69.1 °F 82% 29.97 in 10.0 mi SW 4.6 mph - N/A   Mostly Cloudy
8:53 PM 75.0 °F 69.1 °F 82% 29.98 in 10.0 mi WSW 4.6 mph - N/A   Mostly Cloudy
9:53 PM 75.0 °F 69.1 °F 82% 29.99 in 10.0 mi SW 3.5 mph - N/A   Overcast
10:53 PM 75.0 °F 68.0 °F 79% 29.98 in 10.0 mi Calm Calm - N/A   Partly Cloudy
11:53 PM 72.0 °F 66.9 °F 84% 29.97 in 10.0 mi Calm Calm - N/A   Mostly Cloudy